2016-01-10, 08:42:04,VALID,920.81,VALID,0,VALID,102.093,VALID,104.648,VALID,20.6764,VALID,142,VALID,1.42773,
2016-01-10, 08:43:04,VALID,920.794,VALID,0,VALID,102.36,VALID,120.334,VALID,20.6975,VALID,139,VALID,1.2168,
2016-01-10, 08:44:04,VALID,920.806,VALID,0,VALID,102.543,VALID,128.07,VALID,20.7365,VALID,138,VALID,1.15273,
2016-01-10, 08:45:04,VALID,920.782,VALID,0,VALID,102.459,VALID,138.169,VALID,20.756,VALID,133,VALID,0.723437,
2016-01-10, 08:46:04,VALID,920.805,VALID,0,VALID,102.299,VALID,158.905,VALID,20.7934,VALID,128,VALID,1.38711,
2016-01-10, 08:47:04,VALID,920.8,VALID,0,VALID,102.093,VALID,185.766,VALID,20.873,VALID,140,VALID,0.692969,
2016-01-10, 08:48:04,VALID,920.768,VALID,0,VALID,101.956,VALID,206.502,VALID,20.9316,VALID,140,VALID,1.74805,
2016-01-10, 08:49:04,VALID,920.752,VALID,0,VALID,101.338,VALID,218.858,VALID,20.9901,VALID,151,VALID,1.81953,
2016-01-10, 08:50:04,VALID,920.77,VALID,0,VALID,100.987,VALID,219.073,VALID,21.0486,VALID,136,VALID,2.0082,
2016-01-10, 08:51:04,VALID,920.753,VALID,0,VALID,100.804,VALID,206.287,VALID,21.1461,VALID,139,VALID,1.5625,
2016-01-10, 08:52:04,VALID,920.724,VALID,0,VALID,100.713,VALID,187.7,VALID,21.2047,VALID,136,VALID,1.69961,
2016-01-10, 08:53:04,VALID,920.76,VALID,0,VALID,99.8439,VALID,170.724,VALID,21.2242,VALID,132,VALID,2.33828,
2016-01-10, 08:54:04,VALID,920.75,VALID,0,VALID,99.9659,VALID,151.277,VALID,21.2421,VALID,137,VALID,1.98633,
2016-01-10, 08:55:04,VALID,920.723,VALID,0,VALID,100.034,VALID,137.202,VALID,21.3022,VALID,119,VALID,0.849609,
2016-01-10, 08:56:04,VALID,920.728,VALID,0,VALID,99.1806,VALID,129.359,VALID,21.2421,VALID,123,VALID,2.01602,
2016-01-10, 08:57:04,VALID,920.725,VALID,0,VALID,99.5771,VALID,125.706,VALID,21.2632,VALID,129,VALID,1.96719,
2016-01-10, 08:58:04,VALID,920.722,VALID,0,VALID,98.9824,VALID,131.186,VALID,21.2421,VALID,115,VALID,1.88711,
2016-01-10, 08:59:04,VALID,920.701,VALID,0,VALID,99.5008,VALID,130.756,VALID,21.2421,VALID,129,VALID,1.725,
2016-01-10, 09:00:04,VALID,920.732,VALID,0,VALID,99.882,VALID,120.442,VALID,21.2616,VALID,89,VALID,1.45508,
2016-01-10, 09:21:04,VALID,920.815,VALID,0,VALID,98.9977,VALID,114.64,VALID,21.3022,VALID,124,VALID,1.64844,
2016-01-10, 09:22:04,VALID,920.771,VALID,0,VALID,99.2721,VALID,120.012,VALID,21.3022,VALID,125,VALID,0.881641,
2016-01-10, 09:23:04,VALID,920.818,VALID,0,VALID,99.76,VALID,114.21,VALID,21.3412,VALID,128,VALID,1.00977,
2016-01-10, 09:24:04,VALID,920.782,VALID,0,VALID,99.7981,VALID,112.706,VALID,21.3803,VALID,91,VALID,0.744141,
2016-01-10, 09:25:04,VALID,920.782,VALID,0,VALID,99.3636,VALID,122.913,VALID,21.3981,VALID,112,VALID,1.33711,
2016-01-10, 09:26:04,VALID,920.762,VALID,0,VALID,99.4703,VALID,127.748,VALID,21.4177,VALID,105,VALID,1.33594,
2016-01-10, 09:27:04,VALID,920.792,VALID,0,VALID,99.5847,VALID,133.549,VALID,21.4372,VALID,98,VALID,1.63398,
2016-01-10, 09:28:04,VALID,920.79,VALID,0,VALID,97.3663,VALID,147.517,VALID,21.4778,VALID,112,VALID,2.03672,
2016-01-10, 09:29:04,VALID,920.757,VALID,0,VALID,89.5446,VALID,163.203,VALID,21.5168,VALID,145,VALID,2.42656,
2016-01-10, 09:30:04,VALID,920.773,VALID,0,VALID,89.0796,VALID,173.625,VALID,21.5347,VALID,103,VALID,2.34492,
2016-01-10, 09:31:04,VALID,920.753,VALID,0,VALID,91.7935,VALID,170.724,VALID,21.5932,VALID,121,VALID,1.52109,
2016-01-10, 09:32:04,VALID,920.779,VALID,0,VALID,93.6842,VALID,182.005,VALID,21.6729,VALID,84,VALID,1.32539,
2016-01-10, 09:33:04,VALID,920.744,VALID,0,VALID,96.3066,VALID,218.858,VALID,21.7103,VALID,108,VALID,0.04375,
2016-01-10, 09:34:04,VALID,920.755,VALID,0,VALID,96.1236,VALID,270.429,VALID,21.79,VALID,100,VALID,0.592188,
2016-01-10, 09:35:04,VALID,920.724,VALID,0,VALID,94.7591,VALID,330.059,VALID,21.8664,VALID,108,VALID,0.0132813,
2016-01-10, 09:36:04,VALID,920.722,VALID,0,VALID,91.3895,VALID,364.655,VALID,21.9818,VALID,93,VALID,0.0804688,
2016-01-10, 09:37:04,VALID,920.725,VALID,0,VALID,86.9298,VALID,379.375,VALID,22.1769,VALID,115,VALID,1.47695,
2016-01-10, 09:38:04,VALID,920.719,VALID,0,VALID,84.6123,VALID,386.573,VALID,22.3542,VALID,124,VALID,2.55039,
2016-01-10, 09:39:04,VALID,920.725,VALID,0,VALID,84.1701,VALID,380.986,VALID,22.5086,VALID,130,VALID,1.47266,
2016-01-10, 09:40:04,VALID,920.733,VALID,0,VALID,82.1804,VALID,369.598,VALID,22.8209,VALID,160,VALID,1.54297,
2016-01-10, 09:41:04,VALID,920.703,VALID,0,VALID,82.4015,VALID,361.647,VALID,23.1171,VALID,131,VALID,1.19844,
2016-01-10, 09:42:04,VALID,920.707,VALID,0,VALID,79.0777,VALID,354.663,VALID,23.1349,VALID,119,VALID,3.23906,
2016-01-10, 09:43:04,VALID,920.724,VALID,0,VALID,78.1324,VALID,348.754,VALID,23.1136,VALID,104,VALID,2.37344,
2016-01-10, 09:44:04,VALID,920.705,VALID,0,VALID,77.431,VALID,340.051,VALID,23.2325,VALID,93,VALID,2.5168,
2016-01-10, 09:45:04,VALID,920.738,VALID,0,VALID,77.2481,VALID,332.423,VALID,23.4472,VALID,138,VALID,2.43828,
2016-01-10, 09:46:04,VALID,920.65,VALID,0,VALID,76.9126,VALID,329.2,VALID,23.6797,VALID,130,VALID,1.11445,
2016-01-10, 09:47:04,VALID,920.641,VALID,0,VALID,76.5391,VALID,329.952,VALID,23.7382,VALID,91,VALID,1.47109,
2016-01-10, 09:48:04,VALID,920.695,VALID,0,VALID,75.5633,VALID,324.795,VALID,23.8572,VALID,119,VALID,2.99492,
2016-01-10, 09:49:04,VALID,920.649,VALID,0,VALID,76.3104,VALID,340.803,VALID,23.7773,VALID,127,VALID,1.58047,
2016-01-10, 09:50:04,VALID,920.604,VALID,0,VALID,78.4221,VALID,369.168,VALID,23.9335,VALID,82,VALID,0.480859,
2016-01-10, 09:51:04,VALID,920.619,VALID,0,VALID,76.7525,VALID,413.756,VALID,24.0915,VALID,132,VALID,0.835156,
2016-01-10, 09:52:04,VALID,920.611,VALID,0,VALID,76.9355,VALID,474.997,VALID,24.2086,VALID,128,VALID,0.0640625,
2016-01-10, 09:53:04,VALID,920.61,VALID,0,VALID,74.5723,VALID,507.122,VALID,24.3258,VALID,86,VALID,1.38984,
2016-01-10, 09:54:04,VALID,920.606,VALID,0,VALID,73.8633,VALID,509.056,VALID,24.4216,VALID,117,VALID,2.3668,
2016-01-10, 09:55:04,VALID,920.581,VALID,0,VALID,71.1341,VALID,462.856,VALID,24.2068,VALID,126,VALID,2.43867,
2016-01-10, 09:56:04,VALID,920.567,VALID,0,VALID,72.2547,VALID,472.526,VALID,24.0311,VALID,146,VALID,1.75703,
2016-01-10, 09:57:04,VALID,920.544,VALID,0,VALID,72.918,VALID,602.423,VALID,23.8554,VALID,126,VALID,1.92188,
2016-01-10, 09:58:04,VALID,920.582,VALID,0,VALID,75.3803,VALID,516.792,VALID,23.7578,VALID,128,VALID,1.05469,
2016-01-10, 09:59:04,VALID,920.565,VALID,0,VALID,75.4871,VALID,684.4,VALID,23.6992,VALID,109,VALID,1.8293,
2016-01-10, 10:00:04,VALID,920.521,VALID,0,VALID,74.9229,VALID,400.97,VALID,23.7773,VALID,138,VALID,1.12891,
2016-01-10, 10:01:04,VALID,920.561,VALID,0,VALID,76.1884,VALID,458.237,VALID,23.8944,VALID,127,VALID,0.368359,
2016-01-10, 10:02:04,VALID,920.541,VALID,0,VALID,75.2584,VALID,548.272,VALID,23.953,VALID,68,VALID,1.56875,
2016-01-10, 10:03:04,VALID,920.586,VALID,0,VALID,76.2265,VALID,734.468,VALID,23.992,VALID,182,VALID,0.971094,
2016-01-10, 10:04:04,VALID,920.56,VALID,0,VALID,76.6763,VALID,614.349,VALID,24.1873,VALID,137,VALID,1.45547,
2016-01-10, 10:05:04,VALID,920.577,VALID,0,VALID,72.6969,VALID,529.685,VALID,24.363,VALID,157,VALID,1.46992,
2016-01-10, 10:06:04,VALID,920.575,VALID,0,VALID,72.8951,VALID,576.959,VALID,24.4216,VALID,155,VALID,0.429297,
2016-01-10, 10:07:04,VALID,920.561,VALID,0,VALID,73.0323,VALID,711.69,VALID,24.5192,VALID,189,VALID,0.183594,
2016-01-10, 10:08:04,VALID,920.557,VALID,0,VALID,71.0579,VALID,695.467,VALID,24.6559,VALID,170,VALID,1.1625,
2016-01-10, 10:09:04,VALID,920.579,VALID,0,VALID,72.4072,VALID,659.796,VALID,24.7926,VALID,164,VALID,0.00351562,
2016-01-10, 10:10:04,VALID,920.564,VALID,0,VALID,72.7808,VALID,436.104,VALID,24.9683,VALID,80,VALID,0.273047,
2016-01-10, 10:11:04,VALID,920.593,VALID,0,VALID,68.1686,VALID,342.63,VALID,24.9292,VALID,137,VALID,1.68008,
2016-01-10, 10:12:04,VALID,920.667,VALID,0,VALID,70.913,VALID,313.513,VALID,24.773,VALID,145,VALID,1.12578,
2016-01-10, 10:13:04,VALID,920.624,VALID,0,VALID,69.0681,VALID,310.505,VALID,24.5973,VALID,185,VALID,2.54297,
2016-01-10, 10:14:04,VALID,920.645,VALID,0,VALID,70.448,VALID,321.679,VALID,24.4197,VALID,136,VALID,1.39727,
2016-01-10, 10:15:04,VALID,920.664,VALID,0,VALID,70.8368,VALID,313.406,VALID,24.244,VALID,184,VALID,1.46133,
2016-01-10, 10:16:04,VALID,920.68,VALID,0,VALID,73.1772,VALID,292.777,VALID,24.1659,VALID,151,VALID,0.346484,
2016-01-10, 10:17:04,VALID,920.716,VALID,0,VALID,75.0373,VALID,288.909,VALID,24.1873,VALID,88,VALID,0.296875,
2016-01-10, 10:18:04,VALID,920.631,VALID,0,VALID,73.3982,VALID,323.72,VALID,24.2068,VALID,50,VALID,3.03906,
2016-01-10, 10:19:04,VALID,920.687,VALID,0,VALID,72.2014,VALID,339.836,VALID,24.0683,VALID,60,VALID,2.40898,
2016-01-10, 10:20:04,VALID,920.669,VALID,0,VALID,72.4758,VALID,331.241,VALID,23.992,VALID,63,VALID,1.51953,
2016-01-10, 10:21:04,VALID,920.664,VALID,0,VALID,71.6372,VALID,339.621,VALID,23.9512,VALID,146,VALID,0.503516,
2016-01-10, 10:22:04,VALID,920.613,VALID,0,VALID,71.5229,VALID,333.282,VALID,23.953,VALID,100,VALID,0,
2016-01-10, 10:23:04,VALID,920.642,VALID,0,VALID,74.8391,VALID,325.547,VALID,23.9902,VALID,83,VALID,0.00429688,
2016-01-10, 10:24:04,VALID,920.638,VALID,0,VALID,74.8848,VALID,308.141,VALID,24.0683,VALID,134,VALID,0.00195313,
2016-01-10, 10:25:04,VALID,920.669,VALID,0,VALID,73.9776,VALID,318.778,VALID,24.1269,VALID,121,VALID,0.11875,
2016-01-10, 10:26:04,VALID,920.676,VALID,0,VALID,73.2229,VALID,309.968,VALID,24.0683,VALID,136,VALID,1.5332,
2016-01-10, 10:27:04,VALID,920.656,VALID,0,VALID,73.9776,VALID,309.323,VALID,23.9902,VALID,79,VALID,0.895703,
2016-01-10, 10:28:04,VALID,920.661,VALID,0,VALID,72.1633,VALID,310.183,VALID,24.0115,VALID,140,VALID,2.30117,
2016-01-10, 10:29:04,VALID,920.62,VALID,0,VALID,74.5418,VALID,312.761,VALID,23.9316,VALID,78,VALID,1.4168,
2016-01-10, 10:30:04,VALID,920.654,VALID,0,VALID,73.8175,VALID,317.059,VALID,23.9512,VALID,139,VALID,1.66641,
2016-01-10, 10:31:04,VALID,920.659,VALID,0,VALID,74.1453,VALID,322.109,VALID,23.9121,VALID,119,VALID,1.79102,
2016-01-10, 10:32:04,VALID,920.626,VALID,0,VALID,75.0297,VALID,322.323,VALID,23.8926,VALID,86,VALID,1.35742,
2016-01-10, 10:33:04,VALID,920.599,VALID,0,VALID,73.3601,VALID,324.795,VALID,23.795,VALID,77,VALID,3.25977,
2016-01-10, 10:34:04,VALID,920.586,VALID,0,VALID,72.1937,VALID,331.563,VALID,23.7364,VALID,108,VALID,2.58633,
2016-01-10, 10:35:04,VALID,920.6,VALID,0,VALID,73.9395,VALID,335.754,VALID,23.7364,VALID,100,VALID,1.23633,
2016-01-10, 10:36:04,VALID,920.572,VALID,0,VALID,75.6777,VALID,338.547,VALID,23.834,VALID,141,VALID,0.09375,
2016-01-10, 10:37:04,VALID,920.585,VALID,0,VALID,73.9319,VALID,336.076,VALID,23.8731,VALID,97,VALID,1.03398,
2016-01-10, 10:38:04,VALID,920.552,VALID,0,VALID,74.4503,VALID,333.175,VALID,23.9316,VALID,107,VALID,0.66875,
2016-01-10, 10:39:04,VALID,920.56,VALID,0,VALID,74.0386,VALID,329.629,VALID,23.9512,VALID,81,VALID,1.76055,
2016-01-10, 10:40:04,VALID,920.543,VALID,0,VALID,72.6054,VALID,326.621,VALID,23.8926,VALID,128,VALID,1.90742,
2016-01-10, 10:41:04,VALID,920.537,VALID,0,VALID,73.4821,VALID,335.539,VALID,23.8926,VALID,121,VALID,2.37266,
2016-01-10, 10:42:04,VALID,920.507,VALID,0,VALID,73.0247,VALID,343.382,VALID,23.8536,VALID,91,VALID,1.92617,
2016-01-10, 10:43:04,VALID,920.489,VALID,0,VALID,73.2305,VALID,350.688,VALID,23.8536,VALID,85,VALID,2.22539,
2016-01-10, 10:44:04,VALID,920.471,VALID,0,VALID,73.5736,VALID,352.085,VALID,23.8731,VALID,50,VALID,1.62148,
2016-01-10, 10:45:04,VALID,920.461,VALID,0,VALID,74.1911,VALID,354.126,VALID,24.0097,VALID,54,VALID,2.64297,
2016-01-10, 10:46:04,VALID,920.469,VALID,0,VALID,73.9471,VALID,339.407,VALID,24.0878,VALID,86,VALID,1.56289,
2016-01-10, 10:47:04,VALID,920.412,VALID,0,VALID,72.6664,VALID,331.456,VALID,24.1073,VALID,38,VALID,2.34687,
2016-01-10, 10:48:04,VALID,920.446,VALID,0,VALID,72.3538,VALID,350.903,VALID,24.1659,VALID,113,VALID,0.605859,
2016-01-10, 10:49:04,VALID,920.475,VALID,0,VALID,75.67,VALID,356.49,VALID,24.283,VALID,109,VALID,0.000390625,
2016-01-10, 10:50:04,VALID,920.436,VALID,0,VALID,72.8341,VALID,407.202,VALID,24.2635,VALID,67,VALID,2.39687,
2016-01-10, 10:51:04,VALID,920.454,VALID,0,VALID,71.2103,VALID,436.533,VALID,24.2049,VALID,105,VALID,1.07422,
2016-01-10, 10:52:04,VALID,920.441,VALID,0,VALID,71.2408,VALID,419.665,VALID,24.1641,VALID,59,VALID,1.67773,
2016-01-10, 10:53:04,VALID,920.425,VALID,0,VALID,72.6893,VALID,450.823,VALID,24.2635,VALID,123,VALID,1.8668,
2016-01-10, 10:54:04,VALID,920.398,VALID,0,VALID,72.0794,VALID,498.742,VALID,24.3026,VALID,77,VALID,3.34219,
2016-01-10, 10:55:04,VALID,920.469,VALID,0,VALID,71.7821,VALID,543.222,VALID,24.3221,VALID,90,VALID,0.208594,
2016-01-10, 10:56:04,VALID,920.419,VALID,0,VALID,73.7718,VALID,833.636,VALID,24.4569,VALID,84,VALID,0.627344,
2016-01-10, 10:57:04,VALID,920.443,VALID,0,VALID,71.7135,VALID,846.959,VALID,24.6735,VALID,58,VALID,1.475,
2016-01-10, 10:58:04,VALID,920.453,VALID,0,VALID,71.805,VALID,696.541,VALID,24.7321,VALID,71,VALID,2.43672,
2016-01-10, 10:59:04,VALID,920.428,VALID,0,VALID,70.6157,VALID,433.418,VALID,24.7497,VALID,82,VALID,2.18359,
2016-01-10, 11:00:04,VALID,920.454,VALID,0,VALID,73.1619,VALID,501.428,VALID,24.8492,VALID,55,VALID,1.46367,
2016-01-10, 11:01:04,VALID,920.494,VALID,0,VALID,73.7947,VALID,400.111,VALID,24.9274,VALID,101,VALID,0.403516,
2016-01-10, 11:02:04,VALID,920.466,VALID,0,VALID,70.2955,VALID,406.665,VALID,24.8492,VALID,118,VALID,0.769922,
2016-01-10, 11:03:04,VALID,920.465,VALID,0,VALID,70.0592,VALID,400.863,VALID,24.7888,VALID,92,VALID,2.46953,
2016-01-10, 11:04:04,VALID,920.431,VALID,0,VALID,73.5736,VALID,377.333,VALID,24.7907,VALID,47,VALID,1.29219,
2016-01-10, 11:05:04,VALID,920.44,VALID,0,VALID,71.9574,VALID,369.275,VALID,24.8474,VALID,85,VALID,0.155469,
2016-01-10, 11:06:04,VALID,920.402,VALID,0,VALID,69.3655,VALID,364.011,VALID,24.9878,VALID,133,VALID,0,
2016-01-10, 11:07:04,VALID,920.382,VALID,0,VALID,69.5713,VALID,361.432,VALID,25.0074,VALID,164,VALID,0,
2016-01-10, 11:09:04,VALID,920.331,VALID,0,VALID,69.0529,VALID,349.399,VALID,25.1031,VALID,79,VALID,2.34648,
2016-01-10, 11:10:04,VALID,920.337,VALID,0,VALID,70.1507,VALID,359.283,VALID,24.9488,VALID,48,VALID,2.31758,
2016-01-10, 11:11:04,VALID,920.327,VALID,0,VALID,70.3336,VALID,351.977,VALID,24.8297,VALID,81,VALID,1.36133,
2016-01-10, 11:12:04,VALID,920.302,VALID,0,VALID,71.6067,VALID,433.525,VALID,24.7516,VALID,82,VALID,1.65937,
2016-01-10, 11:13:04,VALID,920.26,VALID,0,VALID,70.791,VALID,371.102,VALID,24.654,VALID,40,VALID,2.86523,
2016-01-10, 11:14:04,VALID,920.266,VALID,0,VALID,72.9332,VALID,384.102,VALID,24.7126,VALID,21,VALID,1.67148,
2016-01-10, 11:15:04,VALID,920.227,VALID,0,VALID,68.504,VALID,359.928,VALID,24.8297,VALID,51,VALID,2.71367,
2016-01-10, 11:16:04,VALID,920.208,VALID,0,VALID,71.1265,VALID,314.373,VALID,24.7126,VALID,44,VALID,1.88203,
2016-01-10, 11:17:04,VALID,920.171,VALID,0,VALID,72.9485,VALID,309.645,VALID,24.693,VALID,45,VALID,1.78633,
2016-01-10, 11:18:04,VALID,920.128,VALID,0,VALID,70.1812,VALID,332.208,VALID,24.654,VALID,58,VALID,2.61328,
2016-01-10, 11:19:04,VALID,920.119,VALID,0,VALID,69.8152,VALID,568.256,VALID,24.5564,VALID,48,VALID,2.89883,
2016-01-10, 11:20:04,VALID,920.075,VALID,0,VALID,70.9893,VALID,695.252,VALID,24.5954,VALID,43,VALID,1.58867,
2016-01-10, 11:21:04,VALID,920.039,VALID,0,VALID,68.039,VALID,315.447,VALID,24.7126,VALID,59,VALID,2.51367,
2016-01-10, 11:22:04,VALID,920.041,VALID,0,VALID,69.4646,VALID,409.781,VALID,24.8688,VALID,54,VALID,0.982422,
2016-01-10, 11:23:04,VALID,920.054,VALID,0,VALID,70.0897,VALID,507.552,VALID,24.9859,VALID,58,VALID,1.68281,
2016-01-10, 11:24:04,VALID,920.061,VALID,0,VALID,69.1673,VALID,535.164,VALID,25.064,VALID,25,VALID,0.166016,
2016-01-10, 11:25:04,VALID,920.006,VALID,0,VALID,69.3883,VALID,508.841,VALID,25.2593,VALID,56,VALID,0.511328,
2016-01-10, 11:26:04,VALID,920.028,VALID,0,VALID,67.9475,VALID,534.305,VALID,25.3941,VALID,126,VALID,0.00351562,
2016-01-10, 11:27:04,VALID,920.046,VALID,0,VALID,66.2094,VALID,305.563,VALID,25.4156,VALID,128,VALID,1.7668,
2016-01-10, 11:28:04,VALID,920.022,VALID,0,VALID,68.0161,VALID,322.216,VALID,25.3746,VALID,62,VALID,0.0371094,
2016-01-10, 11:29:04,VALID,920.033,VALID,0,VALID,69.7009,VALID,764.444,VALID,25.2769,VALID,107,VALID,2.01016,
2016-01-10, 11:30:04,VALID,920.066,VALID,0,VALID,70.326,VALID,832.884,VALID,25.2593,VALID,76,VALID,0.909766,
2016-01-10, 11:31:04,VALID,920.091,VALID,0,VALID,65.4318,VALID,833.421,VALID,25.3765,VALID,124,VALID,1.49688,
2016-01-10, 11:32:04,VALID,920.044,VALID,0,VALID,68.0771,VALID,829.123,VALID,25.5913,VALID,56,VALID,1.20625,
2016-01-10, 11:33:04,VALID,920.05,VALID,0,VALID,66.4457,VALID,770.675,VALID,25.8433,VALID,47,VALID,0,
2016-01-10, 11:34:04,VALID,920.027,VALID,0,VALID,66.1331,VALID,815.693,VALID,25.8257,VALID,94,VALID,2.63477,
2016-01-10, 11:35:04,VALID,920.029,VALID,0,VALID,65.1421,VALID,248.297,VALID,25.8042,VALID,74,VALID,0.322656,
2016-01-10, 11:36:04,VALID,920.037,VALID,0,VALID,67.3681,VALID,826.115,VALID,25.8042,VALID,78,VALID,0.925781,
2016-01-10, 11:37:04,VALID,920.017,VALID,0,VALID,67.7874,VALID,778.196,VALID,25.8062,VALID,81,VALID,2.3668,
2016-01-10, 11:38:04,VALID,919.979,VALID,0,VALID,67.9551,VALID,832.561,VALID,25.982,VALID,81,VALID,0.350781,
2016-01-10, 11:39:04,VALID,919.994,VALID,0,VALID,65.813,VALID,832.991,VALID,26.273,VALID,65,VALID,0.914063,
2016-01-10, 11:40:04,VALID,919.962,VALID,0,VALID,65.0354,VALID,828.049,VALID,26.1948,VALID,119,VALID,0.934766,
2016-01-10, 11:41:04,VALID,919.961,VALID,0,VALID,65.0735,VALID,832.347,VALID,26.3316,VALID,138,VALID,1.17539,
2016-01-10, 11:42:04,VALID,919.953,VALID,0,VALID,64.151,VALID,837.611,VALID,26.1948,VALID,142,VALID,1.62852,
2016-01-10, 11:43:04,VALID,919.935,VALID,0,VALID,64.5627,VALID,843.735,VALID,26.2144,VALID,120,VALID,0.808984,
2016-01-10, 11:44:04,VALID,919.919,VALID,0,VALID,64.2959,VALID,842.554,VALID,26.2925,VALID,144,VALID,1.19141,
2016-01-10, 11:45:04,VALID,919.925,VALID,0,VALID,66.8955,VALID,831.057,VALID,26.4097,VALID,100,VALID,1.25508,
2016-01-10, 11:46:04,VALID,919.904,VALID,0,VALID,64.2349,VALID,844.165,VALID,26.3316,VALID,92,VALID,0.65,
2016-01-10, 11:47:04,VALID,919.917,VALID,0,VALID,65.2107,VALID,836.644,VALID,26.31,VALID,96,VALID,1.47227,
2016-01-10, 11:48:04,VALID,919.863,VALID,0,VALID,66.8726,VALID,836,VALID,26.3686,VALID,84,VALID,0.162891,
2016-01-10, 11:49:04,VALID,919.87,VALID,0,VALID,66.1331,VALID,817.09,VALID,26.4097,VALID,131,VALID,1.20078,
2016-01-10, 11:50:04,VALID,919.824,VALID,0,VALID,64.4179,VALID,814.834,VALID,26.3511,VALID,97,VALID,1.65039,
2016-01-10, 11:51:04,VALID,919.828,VALID,0,VALID,65.9349,VALID,811.181,VALID,26.2339,VALID,137,VALID,1.62852,
2016-01-10, 11:52:04,VALID,919.803,VALID,0,VALID,63.564,VALID,819.883,VALID,26.1968,VALID,145,VALID,1.14648,
2016-01-10, 11:53:04,VALID,919.782,VALID,0,VALID,61.8183,VALID,821.602,VALID,26.2554,VALID,178,VALID,0.00585938,
2016-01-10, 11:54:04,VALID,919.816,VALID,0,VALID,61.8335,VALID,822.355,VALID,26.4508,VALID,151,VALID,0.610547,
2016-01-10, 11:55:04,VALID,919.839,VALID,0,VALID,64.0672,VALID,822.247,VALID,26.5289,VALID,143,VALID,1.04805,
2016-01-10, 11:56:04,VALID,919.755,VALID,0,VALID,63.4954,VALID,826.437,VALID,26.3316,VALID,134,VALID,2.47031,
2016-01-10, 11:57:04,VALID,919.739,VALID,0,VALID,62.7788,VALID,826.008,VALID,26.4117,VALID,64,VALID,0.524609,
2016-01-10, 11:58:04,VALID,919.777,VALID,0,VALID,63.625,VALID,836.752,VALID,26.4312,VALID,128,VALID,1.2832,
2016-01-10, 11:59:04,VALID,919.712,VALID,0,VALID,64.7609,VALID,839.223,VALID,26.4488,VALID,125,VALID,0.0492188,
2016-01-10, 12:00:04,VALID,919.673,VALID,0,VALID,65.8282,VALID,841.479,VALID,26.6071,VALID,82,VALID,0.0121094,
2016-01-10, 12:01:04,VALID,919.688,VALID,0,VALID,65.1421,VALID,846.851,VALID,26.9197,VALID,143,VALID,1.13906,
2016-01-10, 12:02:04,VALID,919.685,VALID,0,VALID,62.9542,VALID,851.471,VALID,27.0739,VALID,168,VALID,1.01133,
2016-01-10, 12:03:04,VALID,919.722,VALID,0,VALID,62.8398,VALID,843.306,VALID,27.1521,VALID,110,VALID,1.42891,
2016-01-10, 12:04:04,VALID,919.638,VALID,0,VALID,62.9084,VALID,852.438,VALID,26.7829,VALID,79,VALID,3.04414,
2016-01-10, 12:05:04,VALID,919.699,VALID,0,VALID,61.3228,VALID,854.479,VALID,26.4683,VALID,105,VALID,1.67266,
2016-01-10, 12:06:04,VALID,919.649,VALID,0,VALID,63.869,VALID,869.306,VALID,26.3511,VALID,134,VALID,2.74961,
2016-01-10, 12:07:04,VALID,919.66,VALID,0,VALID,64.7076,VALID,869.306,VALID,26.2925,VALID,118,VALID,1.21758,
2016-01-10, 12:08:04,VALID,919.63,VALID,0,VALID,62.0012,VALID,859.959,VALID,26.4117,VALID,140,VALID,3.28711,
2016-01-10, 12:09:04,VALID,919.552,VALID,0,VALID,61.6048,VALID,860.926,VALID,26.2925,VALID,155,VALID,1.74219,
2016-01-10, 12:10:04,VALID,919.546,VALID,0,VALID,61.1779,VALID,880.695,VALID,26.4488,VALID,175,VALID,2.1957,
2016-01-10, 12:11:04,VALID,919.498,VALID,0,VALID,60.5833,VALID,630.357,VALID,26.6246,VALID,169,VALID,2.88008,
2016-01-10, 12:12:04,VALID,919.499,VALID,0,VALID,61.6506,VALID,861.141,VALID,26.7223,VALID,58,VALID,1.98281,
2016-01-10, 12:13:04,VALID,919.477,VALID,0,VALID,61.1779,VALID,941.077,VALID,26.7809,VALID,163,VALID,1.46641,
2016-01-10, 12:14:04,VALID,919.478,VALID,0,VALID,61.6124,VALID,506.37,VALID,26.7613,VALID,150,VALID,0.807813,
2016-01-10, 12:15:04,VALID,919.398,VALID,0,VALID,62.2223,VALID,539.462,VALID,26.7223,VALID,132,VALID,2.34961,
2016-01-10, 12:16:04,VALID,919.423,VALID,0,VALID,63.1448,VALID,901.216,VALID,26.5464,VALID,109,VALID,2.325,
2016-01-10, 12:17:04,VALID,919.413,VALID,0,VALID,63.1295,VALID,885.1,VALID,26.5855,VALID,113,VALID,2.54883,
2016-01-10, 12:18:04,VALID,919.402,VALID,0,VALID,61.3837,VALID,871.348,VALID,26.5269,VALID,125,VALID,3.82344,
2016-01-10, 12:19:04,VALID,919.352,VALID,0,VALID,63.686,VALID,860.174,VALID,26.2925,VALID,127,VALID,2.72422,
2016-01-10, 12:20:04,VALID,919.356,VALID,0,VALID,63.1219,VALID,851.471,VALID,26.2925,VALID,130,VALID,2.53867,
2016-01-10, 12:21:04,VALID,919.366,VALID,0,VALID,63.2362,VALID,861.463,VALID,26.273,VALID,139,VALID,2.47813,
2016-01-10, 12:22:04,VALID,919.339,VALID,0,VALID,62.4739,VALID,882.307,VALID,26.2925,VALID,172,VALID,1.43828,
2016-01-10, 12:23:04,VALID,919.277,VALID,0,VALID,63.0152,VALID,574.058,VALID,26.273,VALID,187,VALID,3.17773,
2016-01-10, 12:24:04,VALID,919.27,VALID,0,VALID,66.1331,VALID,867.48,VALID,26.4097,VALID,65,VALID,3.49609,
2016-01-10, 12:25:04,VALID,919.265,VALID,0,VALID,63.686,VALID,878.976,VALID,26.4292,VALID,122,VALID,1.65977,
2016-01-10, 12:26:04,VALID,919.25,VALID,0,VALID,64.7838,VALID,881.877,VALID,26.5855,VALID,98,VALID,1.65703,
2016-01-10, 12:27:04,VALID,919.231,VALID,0,VALID,61.5438,VALID,873.389,VALID,26.7223,VALID,144,VALID,2.80195,
2016-01-10, 12:28:04,VALID,919.215,VALID,0,VALID,62.0317,VALID,870.381,VALID,26.7027,VALID,199,VALID,2.02344,
2016-01-10, 12:29:04,VALID,919.162,VALID,0,VALID,65.0125,VALID,869.521,VALID,26.6636,VALID,105,VALID,3.32031,
2016-01-10, 12:30:04,VALID,919.175,VALID,0,VALID,62.1766,VALID,869.736,VALID,26.6636,VALID,145,VALID,1.2,
2016-01-10, 12:31:04,VALID,919.187,VALID,0,VALID,63.8232,VALID,873.282,VALID,26.6226,VALID,139,VALID,2.20391,
2016-01-10, 12:32:04,VALID,919.141,VALID,0,VALID,61.6582,VALID,871.24,VALID,26.7613,VALID,191,VALID,1.75195,
2016-01-10, 12:33:04,VALID,919.128,VALID,0,VALID,60.8654,VALID,883.703,VALID,26.9176,VALID,169,VALID,2.25664,
2016-01-10, 12:34:04,VALID,919.132,VALID,0,VALID,63.0533,VALID,701.913,VALID,26.9958,VALID,125,VALID,0,
2016-01-10, 12:35:04,VALID,919.113,VALID,0,VALID,60.0192,VALID,788.726,VALID,27.1325,VALID,122,VALID,2.27305,
2016-01-10, 12:36:04,VALID,919.124,VALID,0,VALID,63.5793,VALID,926.573,VALID,26.8785,VALID,85,VALID,2.12344,
2016-01-10, 12:37:04,VALID,919.038,VALID,0,VALID,63.6174,VALID,939.143,VALID,26.8199,VALID,57,VALID,2.42461,
2016-01-10, 12:38:04,VALID,919.098,VALID,0,VALID,61.6811,VALID,915.936,VALID,26.8765,VALID,94,VALID,2.83984,
2016-01-10, 12:39:04,VALID,919.048,VALID,0,VALID,63.2362,VALID,959.557,VALID,26.8785,VALID,145,VALID,0.235156,